Tracking 17782 objects as of 25-July-2016
HD Live streaming from Space Station
objects crossing your sky now

ACRIMSAT

Track ACRIMSAT now!
10-day predictions
ACRIMSAT is classified as:


NORAD ID: 26033
Int'l Code: 1999-070B
Perigee: 674.7 km
Apogee: 712.5 km
Inclination: 97.9 °
Period: 98.5 minutes
Semi major axis: 7064 km
RCS: 0.514 m2 (medium)
Launch date: December 21, 1999
Source: United States (US)
Launch site: AIR FORCE WESTERN TEST RANGE (AFWTR)

Monitor total solar irradiance (TSI) with maximum precision; ascertain the extent of solar radiation variability.
Your satellite tracking list
Your tracking list is empty





NASA's NSSDC Master Catalog

Two Line Element Set (TLE):
1 26033U 99070B   16207.02496861  .00000037  00000-0  16353-4 0  9993
2 26033  97.8901 356.3174 0026705 298.1482  61.7022 14.62084850884458
Source of the keplerian elements: AFSPC

N2YO: 763